Regional Weather Roundup
Issued by NWS

Home | Current Version | Previous Version | Graphics & Text | Print | Product List | Glossary On
Versions: 1 2 3 4 5 6 7 8 9 10 11 12 13 14 15 16 17 18 19 20 21 22 23 24 25 26 27
000
ASUS45 KTFX 012110
RWRMT
MONTANA REGIONAL WEATHER ROUNDUP
NATIONAL WEATHER SERVICE GREAT FALLS MT
200 PM MST THU DEC 01 2016

NOTE: "FAIR" INDICATES FEW OR NO CLOUDS BELOW 12000 FEET WITH NO
SIGNIFICANT WEATHER AND/OR OBSTRUCTIONS TO VISIBILITY.

MTZ001>007-043-012200-
WEST OF THE DIVIDE

CITY           SKY/WX    TMP DP  RH WIND       PRES   REMARKS
KALISPELL      CLOUDY    35  32  88 S5        30.01R
MISSOULA       LGT SNOW  34  31  88 CALM      30.05S FOG
BUTTE          CLOUDY    30  17  58 NW10      29.95S WCI  21
MULLAN PASS    SNOW      24  22  91 CALM      29.97R VSB 1/4
ANACONDA         N/A     30  19  64 W13       29.97R WCI  20
DEER LODGE       N/A     32  25  74 N5        30.00R
EUREKA           N/A     34  28  80 NW6       30.05R WCI  29
HAMILTON         N/A     39  19  45 NE3       30.03S
LIBBY            N/A     36  32  87 CALM      30.04R
PLAINS           N/A     40  31  70 CALM      30.06R
RONAN            N/A     36  32  85 CALM      30.06S
$$

MTZ008-052>055-012200-
SOUTHWEST MONTANA

CITY           SKY/WX    TMP DP  RH WIND       PRES   REMARKS
BOZEMAN        CLOUDY    36  23  59 CALM      29.97S
DILLON         CLOUDY    35  15  44 W15       29.95S WCI  25
W YELLOWSTONE  CLOUDY    25  18  74 SW12      29.93S WCI  14
THREE FORKS      N/A     36  -3  19 CALM      29.96S
TWIN BRIDGES     N/A     34  17  50 S5        29.96F
$$

MTZ009-010-012-014-046-048-049-054-012200-
EAST SLOPES AND CENTRAL MONTANA

CITY           SKY/WX    TMP DP  RH WIND       PRES   REMARKS
CUT BANK       CLOUDY    33  26  75 NW15      29.92R WCI  23
GREAT FALLS    CLOUDY    38  24  57 SW6       29.93R
MALMSTROM AFB  PTSUNNY   40  24  53 W13G18    29.93R
HELENA         CLOUDY    38  22  52 W13       29.96S WCI  30
AUGUSTA        PTSUNNY   35  23  61 W15       29.90R WCI  26
BOWMANS CRNR   PTSUNNY   36  21  53 SW14      29.89R WCI  27
CHOTEAU          N/A     34  30  86 N9G15     29.94  FOG     WCI  26
CONRAD           N/A     36  29  76 NW6       29.96R WCI  31
FAIRFIELD      PTSUNNY   39  20  47 NW2       29.90S
POWER          PTSUNNY   37  24  59 NW7       29.91S WCI  31
RAYNESFORD     FLURRIES  37  23  57 W16G22    29.91S WCI  27
ULM            PTSUNNY   37  23  57 W6G18     29.93R
$$

MTZ011-013-016-021-045-047-050-051-012200-
NORTH CENTRAL MONTANA

CITY           SKY/WX    TMP DP  RH WIND       PRES   REMARKS
HAVRE          LGT SNOW  31  27  85 W6        29.95R FOG     WCI  25
LEWISTOWN      PTSUNNY   38  20  48 NW10      29.89S WCI  31
CHINOOK          N/A     34  27  75 NW9       29.95R WCI  26
DENTON         PTSUNNY   40  22  49 W13G28    29.87S
GEYSER         PTSUNNY   38  22  50 W20G25    29.90R WCI  29
GRASS RANGE    PTSUNNY   40  20  43 NW13      29.86S
JUDITH GAP     SNOWSHWR  32  23  68 N12G28    29.89R FOG     WCI  23
ROY              N/A     38  22  51 MISG      29.88S
STANFORD       LGT RAIN  37  21  51 NW15      29.89S WCI  28
WINIFRED         N/A     38  22  54 MISG      29.89R
$$

MTZ017>020-022>027-061-062-012200-
NORTHEAST MONTANA

CITY           SKY/WX    TMP DP  RH WIND       PRES   REMARKS
GLASGOW        CLOUDY    29  22  75 E8        29.93S WCI  21
JORDAN           N/A     43  29  57 VRB3      29.90S
SIDNEY         CLOUDY    31  25  78 SE3       29.99S
WOLF POINT     CLOUDY    33  24  69 E7        29.97S WCI  27
PLENTYWOOD       N/A     28  27  93 SE7       29.97F WCI  21
SCOBEY           N/A     28  19  69 S3        29.93S
$$

MTZ028>42-056>058-012200-
SOUTHCENTRAL AND SOUTHEAST MONTANA

CITY           SKY/WX    TMP DP  RH WIND       PRES   REMARKS
BAKER          CLOUDY    28  20  71 W3        29.94S
BILLINGS       CLOUDY    43  18  36 W13       29.90S
LIVINGSTON     CLOUDY    34  22  61 W17G26    29.93S WCI  23
MILES CITY     CLOUDY    27  18  69 SE3       29.93S
BIG TIMBER     MOSUNNY   37  19  48 W23G30    29.93  WCI  26
EKALAKA          N/A     30  17  58 CALM      29.89S
FORSYTH          N/A     37  27  65 CALM      29.92S
HARLOWTON        N/A     38  20  48 W25G31    29.89S WCI  27
LAUREL           N/A     44  16  32 W10       29.89F
ROUNDUP          N/A     43  15  32 W7        29.82S
$$

REGIONAL REPORTS...DAKOTAS

CITY           SKY/WX    TMP DP  RH WIND       PRES   REMARKS
WILLISTON      CLOUDY    30  24  78 S3        30.00R
MINOT          CLOUDY    29  23  78 NE3       30.00S
DICKINSON      CLOUDY    27  21  78 CALM      29.94S
BEACH          CLOUDY    27  25  93 S3        29.98R
CROSBY         CLOUDY    28  27  93 SW5       30.02R
TIOGA          CLOUDY    27  27 100 SE6       30.00S WCI  20
WATFORD CITY   CLOUDY    28  25  86 CALM      30.00R
BISMARCK       LGT SNOW  30  28  92 NE6       30.00R FOG     WCI  24
GRAND FORKS    CLOUDY    30  24  78 N17       29.99R WCI  18
FARGO          MIX PCPN  33  27  78 N12       29.97R WCI  24
BUFFALO SD       N/A     30  22  72 CALM      29.87R
RAPID CITY     CLOUDY    34  20  56 N9        29.92R WCI  27
$$

REGIONAL REPORTS...WYOMING/IDAHO/WASHINGTON

CITY           SKY/WX    TMP DP  RH WIND       PRES   REMARKS
GILLETTE       CLOUDY    35  23  61 N17       29.90R WCI  25
SHERIDAN       CLOUDY    40  20  44 NW8       29.90F
BUFFALO WY     PTSUNNY   39  17  41 NW6       29.90S
CODY           CLOUDY    35  15  44 S3        29.91S
YELLOWSTONE LA   N/A     23  13  65 VRB7      29.90F WCI  15
IDAHO FALLS    CLOUDY    28  22  78 S16       30.05S WCI  16
SALMON         CLOUDY    32  25  74 CALM      30.05S
BOISE          CLOUDY    38  27  64 NW12      30.16F WCI  30
SPOKANE        CLOUDY    34  31  88 SW10      30.12R WCI  26
$$

REGIONAL REPORTS...ALBERTA

CITY           SKY/WX    TMP DP  RH WIND       PRES   REMARKS
EDMONTON       LGT SNOW  25  21  86 SW3       29.95R FOG
CALGARY        PTSUNNY   32  27  80 N13       29.93R WCI  22
LETHBRIDGE     CLOUDY    37  27  65 NW14      29.93R WCI  29
MEDICINE HAT   CLOUDY    27  21  80 W6        29.96R WCI  20
WATERTON GATE    N/A     34  23  64 SW13G18     N/A  WCI  25
CARDSTON         N/A     34  27  75 W10         N/A  WCI  26
MILK RIVER       N/A     34  32  93 W8          N/A  WCI  27
ONEFOUR          N/A     30  30 100 NW8         N/A  WCI  23
$$

REGIONAL REPORTS...SASKATCHEWAN

CITY           SKY/WX    TMP DP  RH WIND       PRES   REMARKS
SWIFT CURRENT  CLOUDY    28  25  86 W9        29.89R WCI  20
REGINA         CLOUDY    30  27  86 SE9       29.98R WCI  22
SASKATOON      CLOUDY    30  25  80 S3        29.99R
CYPRESS HILLS    N/A     25  23  93 NW9         N/A  WCI  15
VAL MARIE        N/A     30  25  80 SW2         N/A
ROCKGLEN         N/A     28  27  93 SW2         N/A
$$




USA.gov is the U.S. government's official web portal to all federal, state and local government web resources and services.